STARLINK-32726

Last updated on Wed Jan 29 2025 00:02:04 GMT+0000 (Coordinated Universal Time)

1 62446U 24251Q 25028.37038757 .00004517 00000+0 89203-4 0 9995 2 62446 53.1606 67.1067 0001320 76.1317 283.9839 15.49316723 5450
UTC large
Height (km)
Speed (km/s)
/
Latitude / Longitude
Inclination (degrees)
Orbital Period (minutes)
Azimuth
Elevation
Range (km)
Doppler Factor

Next 0 passes for location: London (51.5072 / 0.1276)

Sorry there are no passes over London.